Flag for Canada Weather past 2 weeks in Yellowknife, Northwest Territories, Canada

Now
25 °F

Light snow. Low clouds.


Feels Like: 16 °F
Forecast: 23 / 29 °F
Wind: 8 mph from Northwest

Location: Yellowknife

Current Time: Oct 25, 2014 at 8:50:15 AM

Latest Report: Oct 25, 2014 at 8:00 AM


Visibility: 12 mi

Pressure: 29.91 "Hg

Humidity: 93%

Dew point: 23 °F

Location of YellowknifeLocation

Historic Weather in Yellowknife — Graph

°F

Yellowknife temperature yesterday

Maximum temperature yesterday: 32 °F (at 12:00 AM)
Minimum temperature yesterday: 27 °F (at 10:48 PM)
Average temperature yesterday: 29 °F

Past Weeks' High & Low Weather Summary

 TemperatureHumidityPressure
High46 °F (Oct 10, 1:00 PM)100% (Oct 11, 10:00 AM)30.24 "Hg (Oct 11, 10:00 AM)
Low23 °F (Oct 16, 6:00 AM)64% (Oct 15, 2:00 PM)29.19 "Hg (Oct 11, 10:00 AM)
Average33 °F89%29.70 "Hg
* Reported Oct 10 7:00 AM — Oct 25 7:00 AM, Yellowknife, Weather by CustomWeather, © 2014

Note: Actual official high and low records may vary slightly from our data, if they occured in-between our weather recording intervals... More about our weather records

Advertising

Yellowknife weather history for previous 24 hours

 ConditionsComfort  
Time TempWeatherWind HumidityBarometerVisibility
7:00 AM
Oct 25
25 °FLight snow. Low clouds.10 mph93%29.90 "Hg10 mi
6:00 AM25 °FLight snow. Overcast.10 mph86%29.89 "Hg10 mi
5:50 AM25 °FLight snow. Overcast.10 mph93%29.89 "Hg10 mi
5:07 AM25 °FLight snow. Low clouds.12 mph93%29.88 "Hg10 mi
4:00 AM25 °FLight snow. Low clouds.14 mph93%29.85 "Hg5 mi
3:00 AM25 °FLight snow. Low clouds.9 mph93%29.85 "Hg10 mi
2:00 AM25 °FLight snow. Mostly cloudy.13 mph93%29.83 "Hg15 mi
1:47 AM25 °FLight snow. Mostly cloudy.12 mph93%29.82 "Hg15 mi
1:00 AM27 °FLight snow. Mostly cloudy.14 mph93%29.81 "Hg15 mi
12:00 AM27 °FLight snow. Mostly cloudy.13 mph93%29.79 "Hg15 mi
11:00 PM
Oct 24
27 °FLight snow. Mostly cloudy.14 mph93%29.76 "Hg10 mi
10:48 PM27 °FMostly cloudy.15 mph93%29.76 "Hg15 mi
10:00 PM28 °FMostly cloudy.13 mph86%29.75 "Hg12 mi
9:00 PM28 °FMostly cloudy.14 mph86%29.74 "Hg15 mi
8:00 PM28 °FMostly cloudy.22 mph86%29.73 "Hg12 mi
7:00 PM28 °FLight snow. Mostly cloudy.16 mph93%29.70 "Hg15 mi
6:00 PM28 °FLight freezing rain. Mostly cloudy.15 mph93%29.69 "Hg10 mi
5:00 PM28 °FLight freezing rain. More clouds than sun.21 mph93%29.67 "Hg6 mi
4:00 PM28 °FSnow flurries. Low clouds.16 mph93%29.66 "Hg10 mi
3:00 PM28 °FSnow flurries. Low clouds.16 mph93%29.64 "Hg8 mi
2:00 PM28 °FCloudy.13 mph93%29.62 "Hg15 mi
1:00 PM28 °FMostly cloudy.17 mph93%29.61 "Hg15 mi
12:00 PM28 °FMostly cloudy.18 mph93%29.61 "Hg10 mi
11:00 AM28 °FMostly cloudy.14 mph93%29.60 "Hg12 mi
10:00 AM28 °FMostly cloudy.14 mph93%29.59 "Hg15 mi
9:00 AM28 °FLight freezing rain. Low clouds.10 mph100%29.59 "Hg10 mi
8:00 AM28 °FLow clouds.8 mph100%29.60 "Hg15 mi
Weather by CustomWeather, © 2014

See weather overviewHow to use our weather pages